Regional Weather Roundup
Issued by NWS Northern Indiana

Home | Current Version | Previous Version | Graphics & Text | Print | Product List | Glossary On
Versions: 1 2 3 4 5 6 7 8 9 10 11 12 13 14 15 16 17 18 19 20 21 22 23 24 25 26 27 28 29 30 31 32 33 34 35 36 37 38 39 40 41 42 43 44 45 46 47 48 49 50
000
ASUS43 KIWX 290710
RWRIWX

KIWX WEATHER ROUNDUP
NATIONAL WEATHER SERVICE NORTHERN INDIANA
300 AM EDT WED MAR 29 2017

NOTE: "FAIR" INDICATES FEW OR NO CLOUDS BELOW 12,000 FEET WITH NO
SIGNIFICANT WEATHER AND/OR OBSTRUCTIONS TO VISIBILITY.

* THESE STATIONS ARE NOT UNDER NWS QUALITY CONTROL. THEY ALSO MAY NOT
  REPORT WEATHER SUCH AS PRECIPITATION OR FOG.

INZ001>027-290800-
NORTHERN INDIANA

CITY           SKY/WX    TMP DP  RH WIND       PRES   REMARKS
GARY*          FOG       37  37 100 NE9       30.23F VSB 1/2
VALPARAISO     CLEAR     37  36  96 NE8       30.21S
MICHIGAN CITY* FOG       36  36 100 CALM      30.24S VSB 1/4
LAPORTE*       CLEAR     34  34  98 N6        30.22R WCI  29
KNOX*          MOCLDY    37  28  70 NE7       30.21R
SOUTH BEND     CLEAR     33  32  96 N6        30.23R WCI  28
GOSHEN         CLEAR     36  32  85 NE5       30.22S FOG
MONTICELLO*    CLOUDY    45  42  88 NE8       30.17S
LOGANSPORT*    CLOUDY    45  41  87 NE7       30.19S
ROCHESTER*     CLOUDY    48  41  76 NE8       30.21R
WARSAW*        CLEAR     39  36  87 E5        30.21S
ANGOLA*        CLOUDY    30  30 100 CALM      30.21S VSB 1/4
FORT WAYNE     PTCLDY    42  38  85 NE9       30.20S
HUNTINGTON*    CLOUDY    44  41  91 NE5       30.19F
PERU/GRISSOM   CLOUDY    46  45  96 NE12      30.17S
MARION*        CLOUDY    45  42  88 E12       30.19S FOG

$$
INZ028>050-290800-
CENTRAL INDIANA

CITY           SKY/WX    TMP DP  RH WIND       PRES   REMARKS
LAFAYETTE      CLOUDY    45  43  93 NE8       30.16F
KOKOMO*        CLOUDY    47  43  86 NE13      30.18S
MUNCIE*        CLOUDY    47  44  90 E12       30.17R
INDIANAPOLIS   CLOUDY    49  47  93 NE9       30.13F FOG

$$
MIZ043>046-050>051-056>058-064>065-071>073-077>080-290800-
SOUTHWEST LOWER MICHIGAN

CITY           SKY/WX    TMP DP  RH WIND       PRES   REMARKS
BATTLE CREEK   CLEAR     33  31  92 CALM      30.23S
BENTON HARBOR  CLEAR     30  28  92 CALM      30.24R
COLDWATER*     FOG       31  31 100 CALM      30.21F VSB 1/2
HILLSDALE*     CLEAR     32  32 100 E5        30.21S WCI  27
HOLLAND        PTCLDY    31  29  92 CALM      30.25S FOG
GRAND RAPIDS   CLEAR     32  32 100 NE6       30.23F WCI  26
KALAMAZOO      CLEAR     33  31  92 N3        30.23S FOG
STURGIS*       FOG       32  32 100 CALM      30.21S VSB 1/2
THREE RIVERS*  FOG       31  30  97 CALM      30.24R VSB 3/4

$$
OHZ001>008-015>018-024>025-290800-
NORTHWEST OHIO

CITY           SKY/WX    TMP DP  RH WIND       PRES   REMARKS
WAUSEON*       FAIR      36  34  93 NE6       30.22S
DEFIANCE       CLEAR     37  34  89 NE5       30.22R
FINDLAY        CLEAR     38  31  76 NE8       30.20S
TOLEDO EXPRESS CLEAR     35  34  96 NE3       30.22R
TOLEDO METCALF CLEAR     37  33  85 NE6       30.24R
LIMA           MOCLDY    42  39  89 NE12      30.19R

$$
AND FOR LAKE MICHIGAN COASTAL AND OPEN LAKE BUOY OBSERVATIONS

STATION/POSITION TEMP    WIND        PRES    VSBY  WAVE
                 AIR SEA DIR/SP/G                  HT/PER
                 (F)     (DEG/KT/KT) (MB)    (MI)  (FT/S)
CALUMET HARBOR    34      30/  6/ 10 1023.1F
MICHIGAN CITY     35      40/  9/ 11   N/A
BURNS HARBOR      35      60/ 10/ 14 1024.0R
SAINT JOSEPH      34      60/  2/  4 1024.0

$$
&&




USA.gov is the U.S. government's official web portal to all federal, state and local government web resources and services.